AAL3113 KDFW-KLIT

Flight info

Callsign AAL3113
Flight time 0h 47m
Altitude 33000
Route ZACHH4 BSKAT LIT
Aircraft A320/M-SDE3FGHIRWY/LB1

Departure

Time 2026-05-04 14:26
Airport Dallas Fort Worth International Airport (KDFW)

Arrival

Time 2026-05-04 15:13
Airport Bill & Hillary Clinton National Airport/Adams Field (KLIT)
Time Latitude Longitude Altitude Speed Heading
2026-05-04 14:01 32.90012 -97.03643 598 ft 0 kts 202°
2026-05-04 14:15 32.90022 -97.03639 598 ft 4 kts 209°
2026-05-04 14:15 32.90048 -97.03591 598 ft 4 kts 282°
2026-05-04 14:16 32.90015 -97.03551 598 ft 3 kts 325°
2026-05-04 14:16 32.90012 -97.03549 598 ft 0 kts 324°
2026-05-04 14:19 32.90014 -97.03550 598 ft 1 kts 324°
2026-05-04 14:19 32.90035 -97.03565 598 ft 6 kts 334°
2026-05-04 14:19 32.90082 -97.03565 598 ft 8 kts
2026-05-04 14:20 32.90130 -97.03523 598 ft 10 kts 74°
2026-05-04 14:20 32.90132 -97.03430 598 ft 12 kts 90°
2026-05-04 14:20 32.90135 -97.03333 598 ft 12 kts 69°
2026-05-04 14:21 32.90317 -97.03314 598 ft 16 kts
2026-05-04 14:21 32.90434 -97.03312 598 ft 18 kts 360°
2026-05-04 14:21 32.90564 -97.03313 598 ft 20 kts
2026-05-04 14:21 32.90707 -97.03311 598 ft 22 kts 360°
2026-05-04 14:22 32.90852 -97.03311 598 ft 18 kts
2026-05-04 14:22 32.90965 -97.03309 598 ft 16 kts
2026-05-04 14:22 32.91075 -97.03275 598 ft 17 kts
2026-05-04 14:22 32.91203 -97.03274 598 ft 19 kts
2026-05-04 14:23 32.91461 -97.03267 598 ft 13 kts 19°
2026-05-04 14:23 32.91486 -97.03162 598 ft 15 kts 90°
2026-05-04 14:23 32.91486 -97.03108 598 ft 0 kts 90°
2026-05-04 14:24 32.91486 -97.03095 598 ft 5 kts 90°
2026-05-04 14:24 32.91484 -97.03028 598 ft 10 kts 100°
2026-05-04 14:24 32.91434 -97.02990 598 ft 0 kts 180°
2026-05-04 14:25 32.91426 -97.02990 598 ft 7 kts 180°
2026-05-04 14:25 32.90409 -97.02995 599 ft 129 kts 180°
2026-05-04 14:25 32.89394 -97.03002 891 ft 149 kts 180°
2026-05-04 14:26 32.88344 -97.02964 1464 ft 154 kts 179°
2026-05-04 14:26 32.87275 -97.02908 2184 ft 153 kts 182°
2026-05-04 14:26 32.86169 -97.02859 2629 ft 168 kts 183°
2026-05-04 14:26 32.84909 -97.02767 2897 ft 199 kts 173°
2026-05-04 14:27 32.83502 -97.02147 3275 ft 231 kts 164°
2026-05-04 14:27 32.81967 -97.01378 3935 ft 246 kts 163°
2026-05-04 14:27 32.80354 -97.00570 4715 ft 257 kts 162°
2026-05-04 14:27 32.78763 -96.99505 5535 ft 273 kts 142°
2026-05-04 14:28 32.77639 -96.97633 6357 ft 288 kts 116°
2026-05-04 14:28 32.76933 -96.95382 7188 ft 293 kts 108°
2026-05-04 14:28 32.76561 -96.92979 7945 ft 302 kts 93°
2026-05-04 14:28 32.76624 -96.90462 8762 ft 307 kts 86°
2026-05-04 14:29 32.76844 -96.85344 10334 ft 319 kts 82°
2026-05-04 14:29 32.78276 -96.80065 10808 ft 358 kts 57°
2026-05-04 14:30 32.79525 -96.77404 10973 ft 381 kts 57°
2026-05-04 14:30 32.80839 -96.74608 11435 ft 391 kts 57°
2026-05-04 14:30 32.83504 -96.68877 12731 ft 401 kts 57°
2026-05-04 14:31 32.84856 -96.65948 13377 ft 406 kts 57°
2026-05-04 14:31 32.87592 -96.59986 14546 ft 415 kts 57°
2026-05-04 14:32 32.90387 -96.53889 15657 ft 424 kts 57°
2026-05-04 14:32 32.91809 -96.50792 16219 ft 429 kts 57°
2026-05-04 14:32 32.93247 -96.47661 16786 ft 433 kts 57°
2026-05-04 14:32 32.94697 -96.44501 17379 ft 437 kts 57°
2026-05-04 14:33 32.96165 -96.41301 17971 ft 442 kts 57°
2026-05-04 14:33 32.97642 -96.38071 18515 ft 447 kts 57°
2026-05-04 14:33 32.99139 -96.34794 19034 ft 451 kts 57°
2026-05-04 14:33 33.00504 -96.31406 19582 ft 458 kts 63°
2026-05-04 14:34 33.01753 -96.27897 20095 ft 461 kts 63°
2026-05-04 14:34 33.03006 -96.24361 20617 ft 464 kts 63°
2026-05-04 14:34 33.04264 -96.20809 21104 ft 467 kts 63°
2026-05-04 14:34 33.05527 -96.17233 21600 ft 470 kts 63°
2026-05-04 14:35 33.06800 -96.13625 22052 ft 473 kts 63°
2026-05-04 14:35 33.08077 -96.10007 22490 ft 476 kts 62°
2026-05-04 14:35 33.09365 -96.06357 22921 ft 479 kts 62°
2026-05-04 14:35 33.10662 -96.02688 23325 ft 482 kts 62°
2026-05-04 14:36 33.11963 -95.99002 23708 ft 484 kts 62°
2026-05-04 14:36 33.13270 -95.95279 24043 ft 487 kts 62°
2026-05-04 14:36 33.14577 -95.91542 24359 ft 490 kts 62°
2026-05-04 14:36 33.15886 -95.87792 24676 ft 492 kts 62°
2026-05-04 14:37 33.17210 -95.84002 24979 ft 495 kts 62°
2026-05-04 14:37 33.18542 -95.80198 25295 ft 498 kts 62°
2026-05-04 14:37 33.19878 -95.76368 25608 ft 501 kts 62°
2026-05-04 14:37 33.21215 -95.72524 25919 ft 503 kts 62°
2026-05-04 14:38 33.22563 -95.68650 26234 ft 506 kts 62°
2026-05-04 14:38 33.23918 -95.64760 26537 ft 509 kts 62°
2026-05-04 14:38 33.25276 -95.60858 26878 ft 511 kts 62°
2026-05-04 14:38 33.26646 -95.56911 27165 ft 514 kts 62°
2026-05-04 14:39 33.28015 -95.52956 27447 ft 516 kts 62°
2026-05-04 14:39 33.29385 -95.48986 27811 ft 517 kts 62°
2026-05-04 14:39 33.30751 -95.45016 28231 ft 516 kts 61°
2026-05-04 14:40 33.33461 -95.37133 29062 ft 516 kts 61°
2026-05-04 14:40 33.34825 -95.33164 29493 ft 515 kts 61°
2026-05-04 14:40 33.36205 -95.29144 29932 ft 515 kts 61°
2026-05-04 14:40 33.37549 -95.25235 30309 ft 515 kts 60°
2026-05-04 14:41 33.38922 -95.21238 30679 ft 515 kts 60°
2026-05-04 14:41 33.40289 -95.17251 31048 ft 515 kts 60°
2026-05-04 14:41 33.42541 -95.10663 31662 ft 515 kts 59°
2026-05-04 14:42 33.45237 -95.02733 32418 ft 514 kts 58°
2026-05-04 14:42 33.46587 -94.98765 32803 ft 514 kts 58°
2026-05-04 14:42 33.47940 -94.94796 33016 ft 515 kts 58°
2026-05-04 14:43 33.50656 -94.86811 33023 ft 518 kts 58°
2026-05-04 14:43 33.53362 -94.78798 33021 ft 519 kts 58°
2026-05-04 14:44 33.56059 -94.70784 33025 ft 519 kts 58°
2026-05-04 14:44 33.58757 -94.62765 33023 ft 519 kts 58°
2026-05-04 14:45 33.61459 -94.54743 33044 ft 518 kts 59°
2026-05-04 14:45 33.64150 -94.46737 33019 ft 518 kts 59°
2026-05-04 14:46 33.66826 -94.38705 33019 ft 518 kts 59°
2026-05-04 14:46 33.69497 -94.30673 33024 ft 518 kts 59°
2026-05-04 14:47 33.72377 -94.22865 33031 ft 507 kts 50°
2026-05-04 14:47 33.75923 -94.15494 33041 ft 506 kts 50°
2026-05-04 14:48 33.79442 -94.08155 33027 ft 507 kts 51°
2026-05-04 14:48 33.82951 -94.00802 33026 ft 507 kts 51°
2026-05-04 14:49 33.86442 -93.93482 32755 ft 508 kts 51°
2026-05-04 14:49 33.88219 -93.89750 32256 ft 508 kts 51°
2026-05-04 14:49 33.89973 -93.86057 31835 ft 508 kts 51°
2026-05-04 14:50 33.91704 -93.82406 31397 ft 509 kts 52°
2026-05-04 14:50 33.93485 -93.78653 30976 ft 511 kts 52°
2026-05-04 14:50 33.95228 -93.74981 30541 ft 512 kts 53°
2026-05-04 14:50 33.97012 -93.71213 30111 ft 512 kts 53°
2026-05-04 14:51 33.98754 -93.67524 29624 ft 513 kts 53°
2026-05-04 14:51 34.00542 -93.63732 29126 ft 514 kts 53°
2026-05-04 14:51 34.02308 -93.59988 28634 ft 514 kts 54°
2026-05-04 14:51 34.04043 -93.56310 28163 ft 507 kts 54°
2026-05-04 14:52 34.05828 -93.52705 27689 ft 494 kts 51°
2026-05-04 14:52 34.07669 -93.49267 27231 ft 483 kts 50°
2026-05-04 14:52 34.09547 -93.45949 26775 ft 474 kts 49°
2026-05-04 14:52 34.11425 -93.42715 26331 ft 468 kts 49°
2026-05-04 14:53 34.13292 -93.39508 25896 ft 465 kts 49°
2026-05-04 14:53 34.15127 -93.36308 25458 ft 462 kts 50°
2026-05-04 14:53 34.16929 -93.33103 25037 ft 460 kts 51°
2026-05-04 14:53 34.18698 -93.29909 24636 ft 456 kts 51°
2026-05-04 14:54 34.20449 -93.26718 24224 ft 453 kts 52°
2026-05-04 14:54 34.22177 -93.23550 23809 ft 451 kts 52°
2026-05-04 14:54 34.23895 -93.20398 23368 ft 448 kts 52°
2026-05-04 14:54 34.25608 -93.17267 22890 ft 444 kts 52°
2026-05-04 14:55 34.27310 -93.14170 22410 ft 440 kts 52°
2026-05-04 14:55 34.29000 -93.11099 21934 ft 437 kts 52°
2026-05-04 14:55 34.30677 -93.08050 21477 ft 434 kts 53°
2026-05-04 14:55 34.32339 -93.05030 21030 ft 430 kts 53°
2026-05-04 14:56 34.33993 -93.02025 20578 ft 426 kts 54°
2026-05-04 14:56 34.35624 -92.99055 20139 ft 422 kts 54°
2026-05-04 14:56 34.37244 -92.96102 19708 ft 418 kts 54°
2026-05-04 14:56 34.38843 -92.93180 19273 ft 415 kts 54°
2026-05-04 14:57 34.40427 -92.90279 18843 ft 411 kts 55°
2026-05-04 14:57 34.41997 -92.87403 18388 ft 408 kts 55°
2026-05-04 14:57 34.43558 -92.84545 17858 ft 405 kts 55°
2026-05-04 14:57 34.45104 -92.81719 17351 ft 401 kts 56°
2026-05-04 14:58 34.46633 -92.78918 16884 ft 395 kts 56°
2026-05-04 14:58 34.48137 -92.76155 16422 ft 390 kts 56°
2026-05-04 14:58 34.49612 -92.73443 15967 ft 378 kts 56°
2026-05-04 14:58 34.51056 -92.70790 15527 ft 376 kts 56°
2026-05-04 14:59 34.52487 -92.68154 15090 ft 373 kts 56°
2026-05-04 14:59 34.53903 -92.65539 14651 ft 369 kts 56°
2026-05-04 14:59 34.56696 -92.60375 13800 ft 363 kts 56°
2026-05-04 15:00 34.58069 -92.57835 13319 ft 354 kts 56°
2026-05-04 15:00 34.59393 -92.55388 12857 ft 340 kts 56°
2026-05-04 15:00 34.60664 -92.53038 12396 ft 328 kts 56°
2026-05-04 15:01 34.63166 -92.48416 11505 ft 329 kts 56°
2026-05-04 15:01 34.64417 -92.46101 11096 ft 324 kts 56°
2026-05-04 15:01 34.65646 -92.43823 10672 ft 323 kts 56°
2026-05-04 15:01 34.66881 -92.41531 10235 ft 325 kts 56°
2026-05-04 15:02 34.68123 -92.39224 9809 ft 327 kts 56°
2026-05-04 15:02 34.69370 -92.36908 9338 ft 326 kts 56°
2026-05-04 15:02 34.70578 -92.34673 8874 ft 315 kts 55°
2026-05-04 15:02 34.71978 -92.32650 8431 ft 305 kts 45°
2026-05-04 15:03 34.73370 -92.30749 7977 ft 297 kts 48°
2026-05-04 15:03 34.74702 -92.28861 7531 ft 291 kts 49°
2026-05-04 15:03 34.76050 -92.27064 7138 ft 285 kts 47°
2026-05-04 15:03 34.77387 -92.25257 6753 ft 289 kts 49°
2026-05-04 15:04 34.78707 -92.23397 6360 ft 292 kts 49°
2026-05-04 15:04 34.80041 -92.21526 5950 ft 294 kts 49°
2026-05-04 15:04 34.81378 -92.19688 5540 ft 290 kts 49°
2026-05-04 15:04 34.82707 -92.17880 5148 ft 283 kts 48°
2026-05-04 15:05 34.84003 -92.16124 4753 ft 275 kts 49°
2026-05-04 15:05 34.85285 -92.14394 4316 ft 268 kts 48°
2026-05-04 15:05 34.86503 -92.12751 3939 ft 262 kts 48°
2026-05-04 15:05 34.87726 -92.11092 3527 ft 258 kts 48°
2026-05-04 15:06 34.88892 -92.09489 3157 ft 256 kts 48°
2026-05-04 15:06 34.89868 -92.07706 2962 ft 250 kts 75°
2026-05-04 15:06 34.90004 -92.05660 2978 ft 240 kts 108°
2026-05-04 15:07 34.88294 -92.02430 2985 ft 226 kts 140°
2026-05-04 15:07 34.87117 -92.01200 2974 ft 213 kts 163°
2026-05-04 15:07 34.85749 -92.00958 2980 ft 195 kts 197°
2026-05-04 15:07 34.84676 -92.01712 2975 ft 171 kts 234°
2026-05-04 15:08 34.84354 -92.03058 2990 ft 168 kts 260°
2026-05-04 15:08 34.84148 -92.04451 3018 ft 164 kts 253°
2026-05-04 15:08 34.83832 -92.05751 2990 ft 162 kts 243°
2026-05-04 15:08 34.83266 -92.06934 2951 ft 155 kts 234°
2026-05-04 15:09 34.82635 -92.07935 2827 ft 145 kts 231°
2026-05-04 15:09 34.82005 -92.08841 2679 ft 140 kts 229°
2026-05-04 15:09 34.81365 -92.09724 2503 ft 138 kts 230°
2026-05-04 15:10 34.80078 -92.11462 2171 ft 136 kts 229°
2026-05-04 15:10 34.79444 -92.12311 2000 ft 135 kts 230°
2026-05-04 15:10 34.78181 -92.13995 1645 ft 136 kts 229°
2026-05-04 15:11 34.77551 -92.14834 1460 ft 135 kts 230°
2026-05-04 15:11 34.76918 -92.15678 1279 ft 134 kts 229°
2026-05-04 15:11 34.76290 -92.16524 1090 ft 135 kts 228°
2026-05-04 15:11 34.75657 -92.17346 925 ft 133 kts 227°
2026-05-04 15:12 34.75027 -92.18162 738 ft 134 kts 229°
2026-05-04 15:12 34.74380 -92.18991 531 ft 138 kts 227°
2026-05-04 15:12 34.73738 -92.19818 378 ft 134 kts 228°
2026-05-04 15:12 34.73115 -92.20630 269 ft 121 kts 226°
2026-05-04 15:13 34.72644 -92.21224 267 ft 73 kts 226°
2026-05-04 15:13 34.72455 -92.21497 267 ft 23 kts 245°
2026-05-04 15:13 34.72415 -92.21634 266 ft 11 kts 258°
2026-05-04 15:13 34.72463 -92.21696 267 ft 13 kts 10°
2026-05-04 15:14 34.72534 -92.21619 267 ft 15 kts 46°
2026-05-04 15:14 34.72612 -92.21521 267 ft 17 kts 46°
2026-05-04 15:14 34.72701 -92.21408 267 ft 19 kts 47°
2026-05-04 15:14 34.72771 -92.21317 267 ft 13 kts 46°
2026-05-04 15:15 34.72847 -92.21335 267 ft 15 kts 299°
2026-05-04 15:15 34.72893 -92.21458 267 ft 17 kts 294°
2026-05-04 15:15 34.72945 -92.21596 267 ft 17 kts 295°
2026-05-04 15:16 34.73019 -92.21816 267 ft 10 kts 265°
2026-05-04 15:16 34.72986 -92.21864 267 ft 5 kts 236°
2026-05-04 15:16 34.73001 -92.21936 267 ft 3 kts 291°
2026-05-04 15:17 34.73003 -92.21945 267 ft 0 kts 290°